Home   Weather   Midway   Past weeks

Flag for US Minor Outlying Islands Past Weather in Midway, US Minor Outlying Islands — Yesterday and Last 2 Weeks

Now
65 °F

Light rain. Fog.


Feels Like: 65 °F
Forecast: 66 / 74 °F
Wind: 14 mph from Southeast

Location: Midway Island Naval Air Facility

Current Time: Dec 5, 2016 at 3:59:04 pm

Latest Report: Dec 5, 2016 at 2:56 pm


Visibility: 6 mi

Pressure: 30.00 "Hg

Humidity: 87%

Dew Point: 61 °F

Location of MidwayLocation

Past Weather in Midway — Graph

°F

Midway Temperature Yesterday

Maximum temperature yesterday: 70 °F (at 1:08 pm)
Minimum temperature yesterday: 64 °F (at 9:06 am)
Average temperature yesterday: 67 °F

High & Low Weather Summary for the Past Weeks

 TemperatureHumidityPressure
High80 °F (Nov 30, 10:56 am)97% (Nov 23, 9:56 am)30.35 "Hg (Nov 23, 9:56 am)
Low64 °F (Dec 4, 9:06 am)42% (Dec 2, 11:56 am)29.89 "Hg (Nov 26, 4:56 pm)
Average73 °F83%30.09 "Hg
* Reported Nov 20 1:56 pm — Dec 5 1:56 pm, Midway, Weather by CustomWeather, © 2016

Note: Actual official high and low records may vary slightly from our data, if they occured in-between our weather recording intervals... More about our weather records

Advertising

Midway Weather History for the Previous 24 Hours

Scroll right to see more
 ConditionsComfort  
Time TempWeatherWind HumidityBarometerVisibility
1:56 pm
Mon, Dec 5
65 °FLight rain. More clouds than sun.20 mph85%30.00 "Hg5 mi
12:56 pm65 °FRain. Fog.22 mph87%30.02 "Hg5 mi
9:56 am66 °FRain. More clouds than sun.16 mph84%30.06 "Hg4 mi
9:10 am64 °FHeavy rain. Fog.16 mph94%30.06 "Hg1 mi
8:56 am65 °FHeavy rain. Fog.17 mph91%30.05 "Hg2 mi
8:42 am64 °FHeavy rain. Fog.9 mph88%30.06 "Hg2 mi
7:18 am64 °FLight rain. Fog.15 mph94%30.03 "Hg6 mi
6:56 am65 °FLight rain. Fog.17 mph91%30.02 "Hg6 mi
6:18 am66 °FLight rain. Fog.15 mph88%30.01 "Hg6 mi
5:56 am67 °FLight rain. Fog.12 mph87%30.00 "Hg5 mi
4:56 am67 °FMostly cloudy.15 mph87%29.99 "Hg10 mi
3:56 am67 °FMostly cloudy.18 mph87%30.01 "Hg10 mi
2:56 am67 °FLight rain. Overcast.12 mph90%30.02 "Hg10 mi
2:45 am66 °FLight rain. Overcast.15 mph94%30.02 "Hg10 mi
1:56 am67 °FLight rain. Fog.12 mph90%30.03 "Hg5 mi
1:20 am66 °FLight rain. Mostly cloudy.17 mph94%30.04 "Hg8 mi
1:04 am66 °FRain. Fog.15 mph94%30.04 "Hg4 mi
12:33 am66 °FLight rain. Mostly cloudy.14 mph94%30.05 "Hg9 mi
12:13 am66 °FFog.15 mph94%30.06 "Hg2 mi
11:56 pm
Sun, Dec 4
67 °FMild.15 mph87%30.06 "Hg10 mi
11:21 pm66 °FLight rain. Mostly cloudy.10 mph88%30.07 "Hg10 mi
10:56 pm66 °FLight rain. Fog.13 mph93%30.07 "Hg5 mi
10:18 pm66 °FMostly cloudy.10 mph94%30.08 "Hg10 mi
9:56 pm66 °FLight rain. Overcast.14 mph93%30.08 "Hg8 mi
9:21 pm66 °FLight rain. Overcast.12 mph88%30.10 "Hg10 mi
8:56 pm66 °FOvercast.12 mph93%30.09 "Hg10 mi
8:02 pm66 °FMostly cloudy.15 mph94%30.09 "Hg10 mi
7:43 pm66 °FLight rain. Fog.16 mph94%30.09 "Hg6 mi
6:56 pm67 °FMostly cloudy.6 mph90%30.09 "Hg10 mi
6:27 pm66 °FLight rain. Fog.No wind94%30.08 "Hg4 mi
5:56 pm66 °FRain. Fog.3 mph93%30.08 "Hg2 mi
4:56 pm66 °FLight rain. Mostly cloudy.6 mph93%30.08 "Hg8 mi
3:56 pm67 °FLight rain. Mostly cloudy.5 mph90%30.08 "Hg8 mi
3:10 pm66 °FLight rain. Fog.7 mph94%30.08 "Hg6 mi
Weather by CustomWeather, © 2016

See weather overviewHow to use our weather pages